SCP
0 0 0 0 0 0 0 0 0 0 0 0 0 0 0 0 0 0 0 0 0 0 0 0 0 0 0 0 0 0 0 0 0 0 0 0 0 0 0 0 0 0 0 0 -0 -0 0
0 0 0 0 0 0 0 0 0 0 0 0 0 0 0 0 0 -0 0 0 0 0 0 0 0 0 0 0 0 0 0 0 0 0 0 0 0 0 0 0 0 0 0 0 0 -0 0
0 0 0 0 0 0 0 -0 0 0 0 0 0 0 0 0 0 0 0 0 0 0 0 0 0 0 0 0 0 0 0 0 0 0 0 0 0 0 0 0 0 0 0 0 0 0 -0
0 0 0 0 0 -0 -0 -0 -0 0 0 0 0 0 0 -0 0 0 0 0 0 0 0 0 0 0 0 0 0 0 0 0 0 0 0 0 0 0 0 0 0 0 0 0 0 0 0
0 0 0 0 0 0 0 0 0 0 0 0 0 0 0 0 0 0 0 0 0 0 0 0 0 0 0 0 0 0 0 0 0 0 0 0 0 0 0 0 0 0 0 0 0 0 0
0 0 0 0 -0 -0 -0 0 0 0 0 0 0 0 0 0 0 0 0 0 0 0 0 0 0 0 0 0 0 0 0 0 0 0 0 0 0 0 0 0 0 0 0 0 0 0 0
0 0 0 -0 -0 -0 0 0 0 -0 -0 0 -0 -0 -0 0 0 0 0 0 0 0 0 0 0 0 0 0 0 0 0 0 0 0 0 0 0 0 0 0 0 0 0 0 0 0 0
0 0 0 0 -0 0 0 0 0 0 -0 0 0 -0 -0 0 0 0 0 0 0 0 0 0 0 0 0 0 0 0 0 0 0 0 0 0 0 0 0 0 0 0 0 0 0 0 0
0 0 0 0 0 0 0 0 0 0 0 0 0 0 -0 0 0 0 0 0 0 0 0 0 0 0 0 0 0 0 0 0 0 0 0 0 0 0 0 0 0 0 0 0 0 0 0
0 0 0 0 0 0 0 0 0 0 0 0 0 -0 -0 0 0 0 0 0 0 0 0 0 0 0 0 0 0 0 -0 0 0 0 0 0 0 0 0 0 0 0 0 0 0 0 0
0 0 0 0 0 0 0 0 0 0 0 0 0 -0 -0 0 0 0 0 0 0 0 0 0 0 0 0 0 0 0 0 0 0 0 0 0 0 0 0 0 0 0 0 0 0 0 0
0 0 0 0 0 0 0 0 0 0 0 0 0 0 0 0 0 -0 0 0 0 0 0 0 0 0 0 0 0 0 0 0 0 0 0 0 0 0 0 0 0 0 0 0 0 0 0
0 0 0 0 0 0 0 0 0 0 0 0 0 0 0 0 0 -0 -0 0 0 0 0 0 0 0 0 0 0 0 0 0 0 0 0 0 0 0 0 0 0 0 0 0 0 0 0
0 0 0 0 0 0 0 0 0 0 -0 -0 -0 0 0 0 0 -0 -0 0 0 0 0 0 0 0 0 0 0 0 0 0 0 0 0 0 0 0 0 0 0 0 0 0 0 0 0
0 0 -0 0 0 0 0 0 0 0 -0 -0 -0 0 0 0 0 -0 -0 0 0 0 0 0 0 0 0 0 0 0 0 0 0 0 0 0 0 0 0 0 0 0 0 0 0 0 0
0 0 -0 -0 0 0 0 0 0 -0 -0 0 0 0 -0 0 0 -0 -0 0 0 0 0 0 0 0 0 0 0 0 0 0 0 0 0 0 0 0 0 0 0 0 0 0 0 0 0
0 0 -0 0 0 0 0 0 0 0 0 -0 0 0 0 0 0 0 -0 0 0 0 0 0 0 0 0 0 0 0 0 0 0 0 0 0 0 0 0 0 0 0 0 0 0 0 0
0 0 0 0 0 0 0 0 0 0 0 0 0 0 0 0 0 -0 0 0 0 -0 0 0 0 0 0 0 0 0 0 0 0 0 0 0 0 0 0 0 0 0 0 0 0 0 0
0 0 -0 -0 0 0 0 0 0 0 0 0 0 0 0 0 0 0 -0 -0 0 0 0 0 0 0 0 0 0 0 0 0 0 0 0 0 0 0 0 0 0 0 0 0 0 0 0
-0 -0 -0 0 -0 -0 -0 -0 0 0 0 0 0 0 0 -0 0 -0 0 -0 0 0 0 0 0 0 0 0 0 0 0 0 0 0 0 0 0 0 0 0 0 0 0 0 0 0 0
-0 -0 -0 0 -0 -0 -0 -0 0 0 0 0 0 0 0 -0 -0 -0 0 -0 -0 -0 0 0 0 0 0 0 0 0 0 0 0 0 0 0 0 0 0 0 0 0 0 0 0 0 0
-0 -0 0 -0 -0 -0 -0 -0 -0 0 0 0 0 0 0 0 -0 -0 -0 -0 -0 -0 0 -0 0 0 0 0 0 0 0 0 0 0 0 0 0 0 0 0 0 0 0 0 0 0 0
-0 -0 0 -0 -0 -0 -0 -0 -0 0 -0 0 0 0 0 0 0 0 -0 -0 -0 -0 -0 -0 0 0 0 0 0 0 0 0 0 0 0 0 0 0 0 0 0 0 0 0 0 0 0
-0 -0 -0 -0 -0 -0 -0 -0 -0 -0 -0 0 0 0 0 0 0 0 0 -0 0 0 -0 0 0 0 0 0 0 0 0 0 0 0 0 0 0 0 0 0 0 0 0 0 0 0 0
-0 -0 0 -0 -0 -0 -0 -0 -0 -0 -0 0 0 0 0 0 0 0 0 0 0 -0 -0 -0 0 0 0 0 0 0 0 0 0 0 0 0 0 0 0 0 0 0 0 0 0 0 0
-0 -0 0 -0 -0 -0 -0 -0 -0 -0 -0 0 0 0 0 0 0 0 0 0 0 0 0 -0 0 0 0 0 0 0 0 0 0 0 0 0 0 0 0 0 0 0 0 0 0 0 0
-0 -0 0 0 -0 -0 -0 -0 -0 -0 0 0 0 0 0 0 0 0 0 0 0 0 0 0 0 0 0 0 0 0 0 0 0 0 0 0 0 0 0 0 0 0 0 0 0 0 0
-0 -0 0 0 -0 -0 -0 -0 -0 -0 -0 0 0 0 0 0 0 0 0 0 0 0 0 0 0 0 0 0 0 0 0 0 0 0 0 0 0 0 0 0 0 0 0 0 0 0 0
-0 0 0 0 -0 -0 -0 -0 0 0 0 0 0 0 0 0 0 0 0 0 0 0 0 0 0 0 -0 -0 -0 -0 0 0 0 0 0 0 0 0 0 0 0 0 0 0 0 0 0
Wind_Speed_500mb
48 45 44 40 35 38 38 37 37 37 38 38 36 38 37 36 34 32 30 27 24 22 18 13 10 9 7 6 6 2 19 40 50 52 53 40 40 16 11 11 16 15 7 8 13 11 4
46 45 41 38 35 35 36 37 38 39 41 41 39 37 36 35 35 32 30 27 23 19 17 11 6 6 10 5 11 11 25 43 44 54 55 38 26 15 15 12 13 15 21 22 15 19 13
45 43 41 39 39 39 40 42 43 42 41 40 39 36 35 35 35 35 32 27 22 18 15 13 7 7 12 6 20 22 30 39 39 47 50 37 16 10 12 10 5 6 8 3 11 17 10
46 46 46 44 43 44 45 46 45 43 41 40 39 38 38 37 37 35 31 27 18 15 14 11 8 10 6 17 26 30 28 34 32 36 32 36 12 15 2 4 4 7 5 6 7 20 10
47 48 47 48 48 48 47 46 44 42 42 42 42 42 41 39 38 35 26 19 9 9 12 10 8 8 10 20 28 36 33 26 29 27 18 27 18 11 6 6 10 3 12 9 9 5 12
50 50 51 51 51 50 50 49 48 47 46 45 45 43 41 38 36 28 10 4 7 15 16 11 7 5 16 13 25 36 36 21 26 33 17 15 11 11 7 13 19 17 11 7 11 19 8
51 54 53 52 52 53 52 52 50 49 47 46 45 43 39 35 30 7 11 15 8 3 16 11 7 4 18 17 23 26 46 24 28 21 12 19 15 27 26 13 4 12 13 17 6 6 8
51 54 54 55 55 55 53 52 51 49 46 44 42 38 33 25 11 19 15 5 5 4 10 17 26 28 18 16 17 28 49 18 23 23 19 14 25 20 18 13 9 14 14 11 3 5 7
54 56 57 57 58 56 53 50 47 45 44 41 37 31 22 12 15 12 17 18 15 1 3 4 10 16 9 26 20 29 54 19 28 21 20 21 11 22 20 17 17 11 16 10 6 1 5
54 59 60 60 58 55 51 47 46 43 42 40 31 24 12 8 10 8 9 21 15 3 2 3 5 9 16 18 11 33 45 21 9 25 22 13 13 27 21 20 19 19 14 10 7 4 9
53 59 61 60 57 53 49 47 42 44 40 31 28 22 9 7 8 7 13 20 9 6 4 5 8 11 16 8 30 10 33 14 23 18 10 10 23 30 25 23 18 7 14 15 7 5 5
54 59 61 61 56 51 50 45 45 44 32 28 32 30 13 5 4 12 19 19 3 5 5 4 4 9 12 5 6 14 8 11 10 16 3 6 5 11 21 14 24 21 15 13 9 5 12
52 59 61 59 55 50 49 46 45 40 24 24 28 27 18 11 11 18 20 1 4 4 10 13 7 5 16 11 13 9 10 12 3 23 21 7 5 4 6 17 12 15 18 10 12 11 11
51 57 59 57 54 51 49 49 44 37 17 19 18 20 23 16 14 14 8 1 8 5 8 8 8 16 11 6 12 11 11 9 21 8 8 10 13 10 14 4 11 28 25 9 16 18 16
50 57 59 54 51 50 50 48 41 33 18 13 14 19 39 25 18 8 9 10 6 7 11 14 3 10 7 9 9 10 14 8 12 20 2 9 9 6 16 14 5 11 16 3 10 3 16
49 54 54 50 49 49 52 52 39 29 19 14 15 9 44 28 22 11 10 7 4 15 13 5 4 5 8 8 8 8 11 10 11 16 6 4 11 11 9 3 23 4 9 12 4 15 19
47 51 50 47 47 51 56 57 45 28 18 17 12 3 37 20 17 23 8 7 7 24 14 12 6 8 12 7 14 8 9 8 15 13 12 5 2 6 3 17 13 3 6 7 4 4 11
44 47 46 43 43 51 57 56 48 38 25 12 16 5 36 16 14 8 8 7 11 29 28 16 12 17 10 12 12 9 8 11 30 10 7 8 8 10 10 4 8 12 6 1 15 12 4
43 46 45 40 39 47 53 53 49 47 37 11 9 20 34 10 8 7 6 8 19 23 19 15 18 16 12 8 10 10 7 12 28 13 7 5 6 10 3 4 3 7 9 6 4 1 8
39 43 42 38 34 42 48 50 44 49 38 17 7 5 22 40 16 7 5 10 7 19 21 19 13 8 6 13 16 9 8 12 18 17 21 5 7 5 2 8 5 6 3 7 6 6 14
36 40 37 34 30 35 43 46 44 41 40 12 13 7 7 7 17 15 6 6 13 10 12 25 15 20 8 8 8 9 6 6 18 24 10 7 8 10 14 11 5 3 4 5 5 6 4
34 38 34 31 26 29 37 42 38 37 35 40 9 6 14 8 5 12 10 8 15 8 10 14 15 21 21 11 8 7 6 5 5 12 7 7 8 10 7 6 5 4 6 9 9 4 6
30 36 31 28 25 23 31 37 38 37 35 22 17 16 10 8 4 4 5 3 5 5 15 16 9 12 18 13 8 9 12 12 7 5 6 5 9 4 8 5 2 7 1 6 2 4 5
27 32 27 27 23 17 22 30 32 35 33 28 18 8 8 6 6 4 5 7 9 7 10 9 14 8 5 14 29 28 29 25 20 14 6 9 7 3 9 7 9 10 8 6 6 12 12
24 28 24 23 23 17 14 22 26 29 28 24 22 12 6 6 5 7 9 7 11 11 11 12 8 8 11 13 9 10 5 4 11 14 7 4 7 6 7 10 3 4 3 4 1 4 10
21 24 20 20 19 16 9 12 19 20 23 21 18 16 7 12 5 7 7 7 6 4 7 8 8 6 9 4 3 6 6 3 6 7 9 10 8 2 6 7 12 9 13 6 10 7 5
20 19 16 17 17 14 11 7 10 13 16 18 18 13 6 4 11 13 4 4 8 5 2 0 4 5 4 4 4 4 6 2 8 12 9 5 4 7 7 5 3 11 10 11 9 8 3
20 17 13 16 16 14 12 10 10 9 9 13 13 15 10 4 9 15 14 10 8 6 3 7 4 3 3 4 3 5 5 8 5 5 8 9 11 7 5 7 9 20 12 10 8 5 6
18 16 11 15 16 15 12 13 12 11 12 12 11 17 19 5 6 16 21 15 9 2 10 11 2 4 5 7 3 5 4 6 6 6 7 7 6 6 12 5 5 18 5 9 5 6 12
Wind_Direction_500mb
349 348 346 349 352 349 350 348 345 342 339 337 333 329 328 324 322 317 314 309 302 296 292 294 303 279 217 232 250 33 153 168 167 172 179 172 172 164 168 172 169 234 248 242 245 240 237
353 352 356 2 356 354 351 347 343 339 336 334 333 333 330 327 324 319 312 308 297 286 279 270 274 252 206 213 169 149 153 160 168 166 172 172 177 173 165 175 202 210 247 266 288 227 201
4 7 8 3 0 354 349 345 342 340 339 338 339 339 336 331 324 321 316 305 290 275 258 255 229 215 213 144 152 153 166 166 165 173 171 170 161 170 152 161 208 247 272 180 35 189 175
14 10 5 360 354 350 347 346 345 344 343 342 342 339 335 331 324 323 321 305 283 256 230 239 211 179 180 176 161 160 165 178 177 182 186 187 170 188 237 307 162 205 238 185 86 159 164
8 4 359 355 353 351 349 348 346 344 343 341 338 336 332 329 324 326 324 312 284 212 207 200 192 169 135 178 169 167 168 176 174 182 172 187 173 186 192 203 157 171 183 146 139 145 154
4 1 359 357 355 354 351 349 345 342 340 338 335 333 331 330 326 331 334 53 116 158 164 170 218 227 171 176 181 180 175 165 158 149 126 143 167 186 168 192 182 166 162 126 148 192 223
2 0 359 355 353 352 349 344 342 339 338 336 332 333 333 332 333 349 144 119 108 123 202 195 282 300 138 138 170 188 184 158 152 153 158 164 188 196 185 186 120 138 143 131 115 157 233
359 358 356 354 352 351 347 343 342 341 339 336 334 336 338 343 41 85 110 90 26 266 285 247 248 257 229 152 136 156 174 161 164 167 141 159 210 185 184 196 188 154 151 153 129 122 240
356 356 354 354 353 351 349 349 347 346 341 337 339 342 353 28 108 108 66 27 354 162 246 292 235 242 208 158 145 162 167 162 170 165 180 188 196 173 186 185 188 184 181 175 145 139 119
356 354 354 354 354 353 353 355 351 352 346 341 350 359 25 100 91 109 40 3 355 223 297 114 210 208 170 147 102 167 179 159 160 177 178 204 188 175 182 183 192 200 191 167 157 195 181
353 353 353 354 355 357 358 358 1 357 355 6 14 16 38 133 92 62 340 340 330 311 173 14 134 161 165 170 135 121 182 190 171 157 185 155 175 182 188 194 189 195 165 184 174 168 233
351 353 354 353 357 1 1 4 3 3 11 29 30 31 44 97 35 339 328 318 232 259 81 56 74 157 149 86 67 114 114 115 113 148 239 113 103 191 207 181 187 144 107 81 89 167 199
352 353 353 355 360 5 4 5 2 7 14 33 28 26 31 25 330 321 321 288 205 41 334 2 20 59 95 32 61 61 45 47 92 166 174 123 62 48 28 162 156 176 171 150 176 193 188
354 352 354 358 3 7 6 3 1 5 13 24 20 28 13 0 339 323 337 70 73 5 360 345 357 79 84 20 52 47 85 59 33 0 128 162 157 17 358 25 189 190 200 205 185 187 164
355 353 355 360 6 8 7 6 359 360 1 354 339 338 14 11 2 355 97 58 23 337 325 323 321 98 88 59 109 90 59 57 21 2 175 137 116 338 42 28 320 148 200 53 112 86 178
357 356 357 360 7 9 7 7 3 359 3 355 329 354 12 6 17 70 73 92 38 1 328 298 92 5 108 28 101 76 32 23 1 10 311 116 130 21 9 320 49 4 115 172 205 164 179
357 356 358 2 7 12 9 9 11 3 354 352 355 40 358 8 35 60 68 55 11 1 15 22 42 85 70 81 61 72 20 64 5 336 36 19 325 60 31 29 3 39 123 64 112 320 182
355 356 359 3 8 11 11 14 14 18 7 1 38 50 349 28 47 40 54 11 12 360 13 40 59 58 59 45 65 89 93 17 346 342 44 22 74 66 96 12 340 48 80 346 215 182 72
353 355 358 3 7 11 12 15 14 15 17 14 75 43 16 89 83 70 67 63 48 27 26 20 37 40 55 61 105 83 83 21 19 45 33 7 50 123 144 225 130 46 38 71 89 58 173
351 353 355 359 4 9 11 13 13 18 22 40 60 52 30 58 61 75 85 33 76 45 47 61 36 60 87 53 44 109 93 26 17 37 40 75 80 359 153 73 87 141 46 34 5 210 150
349 350 355 357 359 7 12 12 22 24 25 51 52 66 46 23 38 59 67 39 55 37 47 31 39 36 47 91 68 78 58 37 39 9 36 38 96 94 72 80 91 164 238 337 353 66 311
347 346 350 355 358 4 13 22 26 36 46 62 76 118 79 63 22 54 29 34 64 70 32 45 91 55 63 84 49 125 126 51 22 1 52 8 112 129 83 61 17 264 253 293 291 294 243
344 343 348 352 358 2 12 22 29 40 45 56 66 86 99 20 43 71 42 82 43 101 64 70 101 97 69 69 88 85 82 88 82 17 55 48 129 130 148 14 182 226 196 221 266 43 338
340 341 345 350 353 1 11 19 25 39 42 46 51 70 88 74 73 56 107 104 86 66 112 67 64 91 41 118 100 91 93 90 82 58 38 125 104 70 137 150 211 84 41 13 230 62 43
336 339 344 350 352 357 3 15 20 39 40 41 44 48 77 105 107 106 108 106 112 103 100 97 82 86 126 140 125 128 115 144 67 47 55 28 129 117 178 193 82 191 57 58 46 127 31
333 334 344 350 353 350 352 358 12 30 38 37 35 35 59 131 181 139 120 134 146 150 144 124 117 95 146 111 143 172 165 126 151 128 61 78 77 176 177 206 202 112 148 161 166 234 123
330 326 341 351 348 346 351 326 337 10 28 32 34 28 30 92 173 159 156 156 147 131 103 128 133 158 92 121 123 157 155 180 179 175 162 128 91 187 182 237 221 147 148 156 221 79 0
322 320 341 347 347 341 339 347 305 305 340 8 10 12 15 298 224 206 188 155 160 181 207 148 177 119 112 115 168 143 151 189 173 158 178 178 159 177 179 221 236 158 155 227 68 57 359
316 315 331 344 342 342 347 347 331 304 296 314 328 335 337 291 255 230 221 214 211 267 181 162 73 145 143 101 129 139 147 161 169 187 190 206 214 184 207 213 130 168 172 151 135 46 11
Wind_Speed_850mb
48 45 44 40 35 38 38 37 37 37 38 38 36 38 37 36 34 32 30 27 24 22 18 13 10 9 7 6 6 2 19 40 50 52 53 40 40 16 11 11 16 15 7 8 13 11 4
46 45 41 38 35 35 36 37 38 39 41 41 39 37 36 35 35 32 30 27 23 19 17 11 6 6 10 5 11 11 25 43 44 54 55 38 26 15 15 12 13 15 21 22 15 19 13
45 43 41 39 39 39 40 42 43 42 41 40 39 36 35 35 35 35 32 27 22 18 15 13 7 7 12 6 20 22 30 39 39 47 50 37 16 10 12 10 5 6 8 3 11 17 10
46 46 46 44 43 44 45 46 45 43 41 40 39 38 38 37 37 35 31 27 18 15 14 11 8 10 6 17 26 30 28 34 32 36 32 36 12 15 2 4 4 7 5 6 7 20 10
47 48 47 48 48 48 47 46 44 42 42 42 42 42 41 39 38 35 26 19 9 9 12 10 8 8 10 20 28 36 33 26 29 27 18 27 18 11 6 6 10 3 12 9 9 5 12
50 50 51 51 51 50 50 49 48 47 46 45 45 43 41 38 36 28 10 4 7 15 16 11 7 5 16 13 25 36 36 21 26 33 17 15 11 11 7 13 19 17 11 7 11 19 8
51 54 53 52 52 53 52 52 50 49 47 46 45 43 39 35 30 7 11 15 8 3 16 11 7 4 18 17 23 26 46 24 28 21 12 19 15 27 26 13 4 12 13 17 6 6 8
51 54 54 55 55 55 53 52 51 49 46 44 42 38 33 25 11 19 15 5 5 4 10 17 26 28 18 16 17 28 49 18 23 23 19 14 25 20 18 13 9 14 14 11 3 5 7
54 56 57 57 58 56 53 50 47 45 44 41 37 31 22 12 15 12 17 18 15 1 3 4 10 16 9 26 20 29 54 19 28 21 20 21 11 22 20 17 17 11 16 10 6 1 5
54 59 60 60 58 55 51 47 46 43 42 40 31 24 12 8 10 8 9 21 15 3 2 3 5 9 16 18 11 33 45 21 9 25 22 13 13 27 21 20 19 19 14 10 7 4 9
53 59 61 60 57 53 49 47 42 44 40 31 28 22 9 7 8 7 13 20 9 6 4 5 8 11 16 8 30 10 33 14 23 18 10 10 23 30 25 23 18 7 14 15 7 5 5
54 59 61 61 56 51 50 45 45 44 32 28 32 30 13 5 4 12 19 19 3 5 5 4 4 9 12 5 6 14 8 11 10 16 3 6 5 11 21 14 24 21 15 13 9 5 12
52 59 61 59 55 50 49 46 45 40 24 24 28 27 18 11 11 18 20 1 4 4 10 13 7 5 16 11 13 9 10 12 3 23 21 7 5 4 6 17 12 15 18 10 12 11 11
51 57 59 57 54 51 49 49 44 37 17 19 18 20 23 16 14 14 8 1 8 5 8 8 8 16 11 6 12 11 11 9 21 8 8 10 13 10 14 4 11 28 25 9 16 18 16
50 57 59 54 51 50 50 48 41 33 18 13 14 19 39 25 18 8 9 10 6 7 11 14 3 10 7 9 9 10 14 8 12 20 2 9 9 6 16 14 5 11 16 3 10 3 16
49 54 54 50 49 49 52 52 39 29 19 14 15 9 44 28 22 11 10 7 4 15 13 5 4 5 8 8 8 8 11 10 11 16 6 4 11 11 9 3 23 4 9 12 4 15 19
47 51 50 47 47 51 56 57 45 28 18 17 12 3 37 20 17 23 8 7 7 24 14 12 6 8 12 7 14 8 9 8 15 13 12 5 2 6 3 17 13 3 6 7 4 4 11
44 47 46 43 43 51 57 56 48 38 25 12 16 5 36 16 14 8 8 7 11 29 28 16 12 17 10 12 12 9 8 11 30 10 7 8 8 10 10 4 8 12 6 1 15 12 4
43 46 45 40 39 47 53 53 49 47 37 11 9 20 34 10 8 7 6 8 19 23 19 15 18 16 12 8 10 10 7 12 28 13 7 5 6 10 3 4 3 7 9 6 4 1 8
39 43 42 38 34 42 48 50 44 49 38 17 7 5 22 40 16 7 5 10 7 19 21 19 13 8 6 13 16 9 8 12 18 17 21 5 7 5 2 8 5 6 3 7 6 6 14
36 40 37 34 30 35 43 46 44 41 40 12 13 7 7 7 17 15 6 6 13 10 12 25 15 20 8 8 8 9 6 6 18 24 10 7 8 10 14 11 5 3 4 5 5 6 4
34 38 34 31 26 29 37 42 38 37 35 40 9 6 14 8 5 12 10 8 15 8 10 14 15 21 21 11 8 7 6 5 5 12 7 7 8 10 7 6 5 4 6 9 9 4 6
30 36 31 28 25 23 31 37 38 37 35 22 17 16 10 8 4 4 5 3 5 5 15 16 9 12 18 13 8 9 12 12 7 5 6 5 9 4 8 5 2 7 1 6 2 4 5
27 32 27 27 23 17 22 30 32 35 33 28 18 8 8 6 6 4 5 7 9 7 10 9 14 8 5 14 29 28 29 25 20 14 6 9 7 3 9 7 9 10 8 6 6 12 12
24 28 24 23 23 17 14 22 26 29 28 24 22 12 6 6 5 7 9 7 11 11 11 12 8 8 11 13 9 10 5 4 11 14 7 4 7 6 7 10 3 4 3 4 1 4 10
21 24 20 20 19 16 9 12 19 20 23 21 18 16 7 12 5 7 7 7 6 4 7 8 8 6 9 4 3 6 6 3 6 7 9 10 8 2 6 7 12 9 13 6 10 7 5
20 19 16 17 17 14 11 7 10 13 16 18 18 13 6 4 11 13 4 4 8 5 2 0 4 5 4 4 4 4 6 2 8 12 9 5 4 7 7 5 3 11 10 11 9 8 3
20 17 13 16 16 14 12 10 10 9 9 13 13 15 10 4 9 15 14 10 8 6 3 7 4 3 3 4 3 5 5 8 5 5 8 9 11 7 5 7 9 20 12 10 8 5 6
18 16 11 15 16 15 12 13 12 11 12 12 11 17 19 5 6 16 21 15 9 2 10 11 2 4 5 7 3 5 4 6 6 6 7 7 6 6 12 5 5 18 5 9 5 6 12
Wind_Direction_850mb
349 348 346 349 352 349 350 348 345 342 339 337 333 329 328 324 322 317 314 309 302 296 292 294 303 279 217 232 250 33 153 168 167 172 179 172 172 164 168 172 169 234 248 242 245 240 237
353 352 356 2 356 354 351 347 343 339 336 334 333 333 330 327 324 319 312 308 297 286 279 270 274 252 206 213 169 149 153 160 168 166 172 172 177 173 165 175 202 210 247 266 288 227 201
4 7 8 3 0 354 349 345 342 340 339 338 339 339 336 331 324 321 316 305 290 275 258 255 229 215 213 144 152 153 166 166 165 173 171 170 161 170 152 161 208 247 272 180 35 189 175
14 10 5 360 354 350 347 346 345 344 343 342 342 339 335 331 324 323 321 305 283 256 230 239 211 179 180 176 161 160 165 178 177 182 186 187 170 188 237 307 162 205 238 185 86 159 164
8 4 359 355 353 351 349 348 346 344 343 341 338 336 332 329 324 326 324 312 284 212 207 200 192 169 135 178 169 167 168 176 174 182 172 187 173 186 192 203 157 171 183 146 139 145 154
4 1 359 357 355 354 351 349 345 342 340 338 335 333 331 330 326 331 334 53 116 158 164 170 218 227 171 176 181 180 175 165 158 149 126 143 167 186 168 192 182 166 162 126 148 192 223
2 0 359 355 353 352 349 344 342 339 338 336 332 333 333 332 333 349 144 119 108 123 202 195 282 300 138 138 170 188 184 158 152 153 158 164 188 196 185 186 120 138 143 131 115 157 233
359 358 356 354 352 351 347 343 342 341 339 336 334 336 338 343 41 85 110 90 26 266 285 247 248 257 229 152 136 156 174 161 164 167 141 159 210 185 184 196 188 154 151 153 129 122 240
356 356 354 354 353 351 349 349 347 346 341 337 339 342 353 28 108 108 66 27 354 162 246 292 235 242 208 158 145 162 167 162 170 165 180 188 196 173 186 185 188 184 181 175 145 139 119
356 354 354 354 354 353 353 355 351 352 346 341 350 359 25 100 91 109 40 3 355 223 297 114 210 208 170 147 102 167 179 159 160 177 178 204 188 175 182 183 192 200 191 167 157 195 181
353 353 353 354 355 357 358 358 1 357 355 6 14 16 38 133 92 62 340 340 330 311 173 14 134 161 165 170 135 121 182 190 171 157 185 155 175 182 188 194 189 195 165 184 174 168 233
351 353 354 353 357 1 1 4 3 3 11 29 30 31 44 97 35 339 328 318 232 259 81 56 74 157 149 86 67 114 114 115 113 148 239 113 103 191 207 181 187 144 107 81 89 167 199
352 353 353 355 360 5 4 5 2 7 14 33 28 26 31 25 330 321 321 288 205 41 334 2 20 59 95 32 61 61 45 47 92 166 174 123 62 48 28 162 156 176 171 150 176 193 188
354 352 354 358 3 7 6 3 1 5 13 24 20 28 13 0 339 323 337 70 73 5 360 345 357 79 84 20 52 47 85 59 33 0 128 162 157 17 358 25 189 190 200 205 185 187 164
355 353 355 360 6 8 7 6 359 360 1 354 339 338 14 11 2 355 97 58 23 337 325 323 321 98 88 59 109 90 59 57 21 2 175 137 116 338 42 28 320 148 200 53 112 86 178
357 356 357 360 7 9 7 7 3 359 3 355 329 354 12 6 17 70 73 92 38 1 328 298 92 5 108 28 101 76 32 23 1 10 311 116 130 21 9 320 49 4 115 172 205 164 179
357 356 358 2 7 12 9 9 11 3 354 352 355 40 358 8 35 60 68 55 11 1 15 22 42 85 70 81 61 72 20 64 5 336 36 19 325 60 31 29 3 39 123 64 112 320 182
355 356 359 3 8 11 11 14 14 18 7 1 38 50 349 28 47 40 54 11 12 360 13 40 59 58 59 45 65 89 93 17 346 342 44 22 74 66 96 12 340 48 80 346 215 182 72
353 355 358 3 7 11 12 15 14 15 17 14 75 43 16 89 83 70 67 63 48 27 26 20 37 40 55 61 105 83 83 21 19 45 33 7 50 123 144 225 130 46 38 71 89 58 173
351 353 355 359 4 9 11 13 13 18 22 40 60 52 30 58 61 75 85 33 76 45 47 61 36 60 87 53 44 109 93 26 17 37 40 75 80 359 153 73 87 141 46 34 5 210 150
349 350 355 357 359 7 12 12 22 24 25 51 52 66 46 23 38 59 67 39 55 37 47 31 39 36 47 91 68 78 58 37 39 9 36 38 96 94 72 80 91 164 238 337 353 66 311
347 346 350 355 358 4 13 22 26 36 46 62 76 118 79 63 22 54 29 34 64 70 32 45 91 55 63 84 49 125 126 51 22 1 52 8 112 129 83 61 17 264 253 293 291 294 243
344 343 348 352 358 2 12 22 29 40 45 56 66 86 99 20 43 71 42 82 43 101 64 70 101 97 69 69 88 85 82 88 82 17 55 48 129 130 148 14 182 226 196 221 266 43 338
340 341 345 350 353 1 11 19 25 39 42 46 51 70 88 74 73 56 107 104 86 66 112 67 64 91 41 118 100 91 93 90 82 58 38 125 104 70 137 150 211 84 41 13 230 62 43
336 339 344 350 352 357 3 15 20 39 40 41 44 48 77 105 107 106 108 106 112 103 100 97 82 86 126 140 125 128 115 144 67 47 55 28 129 117 178 193 82 191 57 58 46 127 31
333 334 344 350 353 350 352 358 12 30 38 37 35 35 59 131 181 139 120 134 146 150 144 124 117 95 146 111 143 172 165 126 151 128 61 78 77 176 177 206 202 112 148 161 166 234 123
330 326 341 351 348 346 351 326 337 10 28 32 34 28 30 92 173 159 156 156 147 131 103 128 133 158 92 121 123 157 155 180 179 175 162 128 91 187 182 237 221 147 148 156 221 79 0
322 320 341 347 347 341 339 347 305 305 340 8 10 12 15 298 224 206 188 155 160 181 207 148 177 119 112 115 168 143 151 189 173 158 178 178 159 177 179 221 236 158 155 227 68 57 359
316 315 331 344 342 342 347 347 331 304 296 314 328 335 337 291 255 230 221 214 211 267 181 162 73 145 143 101 129 139 147 161 169 187 190 206 214 184 207 213 130 168 172 151 135 46 11